User: anonymous
Location: Caltech
(34.1382°N, 118.1253°W)
Time: 02:17:43
(UTC-07:00)
Language:

Cosmos 1484 Rocket - Orbit

View from above orbital plane
View from above orbital plane
View from above satellite
View from above satellite

Ground track
Ground track

The orbit data is extracted from the following two-line orbital elements,

1 14208U 83075B   14111.80392700  .00005533  00000-0  36892-3 0    05
2 14208 097.4303 150.6199 0044107 134.8664 225.6160 15.06651635673716
Epoch (UTC): 21 April 2014 19:17:39
Eccentricity: 0.0044107
inclination: 97.4303°
perigee height: 516 km
apogee height: 577 km
right ascension of ascending node: 150.6199°
argument of perigee: 134.8664°
revolutions per day: 15.06651635
mean anomaly at epoch: 225.6160°
orbit number at epoch: 67371

The dashed part of the orbit path shows where the satellite is in the earth's shadow,  

DLR